Regional Weather Roundup
Issued by NWS

Home | Current Version | Previous Version | Graphics & Text | Print | Product List | Glossary On
Versions: 1 2 3 4 5 6 7 8 9 10 11 12 13 14 15 16 17 18 19 20 21 22 23 24 25 26 27 28 29 30 31 32 33 34 35 36 37 38 39 40 41 42 43 44 45 46 47 48 49 50
000
ASUS43 KLMK 290402
RWRKY
KENTUCKY REGIONAL WEATHER ROUNDUP
NATIONAL WEATHER SERVICE LOUISVILLE KY
1100 PM EST SUN DEC 28 2014

NOTE "FAIR" INDICATES FEW OR NO CLOUDS BELOW 12,000 FEET
WITH NO SIGNIFICANT WEATHER AND/OR OBSTRUCTIONS TO VISIBILITY.

KYZ001>023-026-027-061>063-070>075-290500-
WESTERN AND SOUTH CENTRAL KENTUCKY

CITY           SKY/WX    TMP DP  RH WIND       PRES   REMARKS
PADUCAH        CLOUDY    34  28  79 NE7       30.21S WCI  28
HENDERSON      CLOUDY    34  27  75 N6        30.23R WCI  29
OWENSBORO      CLOUDY    34  30  85 N6        30.23R WCI  29
HOPKINSVILLE   CLOUDY    34  31  89 N7        30.19R WCI  28
BOWLING GREEN  CLOUDY    37  33  85 N3        30.19R
GLASGOW        NOT AVBL
$$

KYZ024-025-028>034-038-045-046-053-290500-
NORTH CENTRAL KENTUCKY

CITY           SKY/WX    TMP DP  RH WIND       PRES   REMARKS
LOUISVILLE/SDF CLOUDY    36  29  75 N3        30.22R
LOUISVILLE/LOU CLOUDY    35  29  78 N3        30.22R
FORT KNOX      CLOUDY    34  31  88 N5        30.18R WCI  30
$$

KYZ035>037-039>044-047>052-055>060-089>105-290500-
NORTHEAST KENTUCKY

CITY           SKY/WX    TMP DP  RH WIND       PRES   REMARKS
LEXINGTON      CLOUDY    33  30  88 N6        30.18S WCI  28
COVINGTON      CLOUDY    33  26  75 N6        30.20R WCI  28
FRANKFORT      CLOUDY    33  30  88 CALM      30.18R
$$

KYZ054-064>069-076>088-106>120-290500-
SOUTHEAST KENTUCKY

CITY           SKY/WX    TMP DP  RH WIND       PRES   REMARKS
JACKSON        CLOUDY    37  35  92 NE3       30.14S
LONDON         CLOUDY    40  36  86 N7        30.13F
SOMERSET       NOT AVBL
MIDDLESBORO    NOT AVBL
MONTICELLO     CLOUDY    40  39  96 N7        30.18R FOG
$$




USA.gov is the U.S. government's official web portal to all federal, state and local government web resources and services.